Precipitable_Water
0.62 0.67 0.73 0.75 0.75 0.72 0.74 0.78 0.77 0.75 0.81 0.84 0.95 0.94 0.94 0.92 0.83 0.82 0.68 0.89 1.09 1.20 1.24 1.20 1.10 0.96 0.75 0.55 0.55 0.76 0.66 0.58 0.51 0.44 0.37 0.32 0.28 0.27 0.22 0.25 0.25 0.22 0.23 0.25 0.25 0.23 0.21
0.65 0.66 0.67 0.74 0.78 0.71 0.74 0.75 0.72 0.78 0.82 0.81 0.93 0.90 0.93 0.88 0.81 0.81 0.64 0.91 1.05 1.22 1.22 1.14 0.98 0.88 0.72 0.50 0.80 0.68 0.56 0.50 0.45 0.38 0.35 0.33 0.29 0.30 0.25 0.24 0.21 0.24 0.22 0.20 0.19 0.17 0.18
0.60 0.63 0.61 0.70 0.78 0.75 0.73 0.73 0.78 0.84 0.84 0.86 0.88 0.89 0.88 0.83 0.72 0.77 0.72 0.91 1.07 1.14 1.12 1.01 0.92 0.84 0.68 0.61 0.77 0.63 0.55 0.47 0.47 0.42 0.33 0.37 0.35 0.27 0.27 0.21 0.27 0.23 0.15 0.16 0.17 0.18 0.19
0.57 0.61 0.61 0.65 0.74 0.78 0.75 0.72 0.77 0.83 0.87 0.86 0.84 0.80 0.73 0.66 0.74 0.74 0.94 0.95 1.16 1.13 1.01 0.91 0.82 0.73 0.56 0.74 0.69 0.58 0.55 0.50 0.53 0.49 0.43 0.43 0.38 0.31 0.27 0.29 0.22 0.18 0.19 0.13 0.17 0.23 0.25
0.55 0.59 0.63 0.65 0.67 0.73 0.74 0.77 0.79 0.81 0.79 0.74 0.69 0.61 0.65 0.82 0.74 0.89 1.05 1.08 1.08 0.99 0.90 0.82 0.69 0.59 0.49 0.71 0.54 0.54 0.53 0.46 0.48 0.50 0.50 0.48 0.42 0.32 0.30 0.22 0.19 0.21 0.14 0.16 0.17 0.23 0.21
0.55 0.57 0.66 0.71 0.71 0.72 0.68 0.74 0.75 0.72 0.68 0.64 0.62 0.79 0.91 0.96 0.95 1.10 1.01 0.96 0.88 0.80 0.78 0.70 0.60 0.43 0.51 0.45 0.48 0.49 0.55 0.52 0.46 0.45 0.41 0.40 0.36 0.28 0.28 0.22 0.12 0.14 0.14 0.15 0.13 0.19 0.23
0.54 0.52 0.54 0.57 0.62 0.69 0.76 0.86 0.81 0.78 0.66 0.71 0.90 0.92 0.97 0.99 0.99 1.00 0.91 0.82 0.66 0.58 0.61 0.48 0.44 0.41 0.42 0.49 0.52 0.47 0.51 0.47 0.45 0.38 0.26 0.31 0.21 0.16 0.19 0.22 0.20 0.19 0.17 0.16 0.21 0.27 0.25
0.55 0.53 0.53 0.56 0.63 0.66 0.74 0.83 0.82 0.79 0.79 0.87 0.82 0.91 0.97 0.96 0.95 0.93 0.85 0.67 0.68 0.63 0.46 0.50 0.46 0.45 0.50 0.51 0.39 0.44 0.50 0.34 0.31 0.22 0.26 0.21 0.16 0.24 0.28 0.28 0.26 0.25 0.22 0.22 0.27 0.33 0.32
0.55 0.53 0.60 0.60 0.62 0.65 0.70 0.83 0.81 0.80 0.86 0.91 0.94 0.93 0.93 0.94 0.91 0.81 0.68 0.67 0.75 0.66 0.44 0.47 0.52 0.48 0.50 0.51 0.37 0.36 0.43 0.40 0.32 0.27 0.28 0.23 0.26 0.34 0.33 0.32 0.29 0.30 0.28 0.28 0.28 0.34 0.38
0.57 0.55 0.58 0.62 0.63 0.64 0.72 0.74 0.78 0.76 0.83 0.88 0.92 0.92 0.90 0.89 0.71 0.70 0.56 0.71 0.71 0.63 0.31 0.35 0.41 0.45 0.48 0.49 0.37 0.51 0.52 0.43 0.36 0.29 0.32 0.30 0.37 0.35 0.35 0.33 0.36 0.28 0.38 0.37 0.35 0.32 0.24
0.59 0.59 0.59 0.57 0.63 0.67 0.66 0.69 0.72 0.74 0.77 0.82 0.85 0.87 0.86 0.88 0.68 0.54 0.61 0.68 0.62 0.48 0.15 0.37 0.42 0.57 0.49 0.41 0.41 0.41 0.56 0.47 0.34 0.33 0.36 0.30 0.35 0.36 0.36 0.39 0.43 0.36 0.44 0.41 0.38 0.34 0.33
0.58 0.58 0.60 0.62 0.68 0.70 0.71 0.70 0.73 0.76 0.74 0.74 0.74 0.73 0.75 0.69 0.61 0.59 0.64 0.60 0.46 0.25 0.16 0.31 0.40 0.36 0.36 0.39 0.40 0.47 0.48 0.54 0.51 0.40 0.40 0.38 0.49 0.46 0.45 0.49 0.50 0.51 0.44 0.42 0.40 0.37 0.25
0.59 0.55 0.57 0.60 0.65 0.66 0.68 0.69 0.71 0.71 0.75 0.74 0.73 0.74 0.70 0.66 0.43 0.58 0.58 0.44 0.24 0.17 0.31 0.28 0.30 0.35 0.32 0.31 0.35 0.39 0.37 0.37 0.34 0.29 0.29 0.37 0.39 0.49 0.52 0.45 0.52 0.49 0.40 0.26 0.24 0.26 0.25
0.65 0.58 0.52 0.57 0.61 0.62 0.64 0.66 0.68 0.68 0.68 0.68 0.67 0.64 0.61 0.56 0.57 0.56 0.48 0.31 0.16 0.25 0.26 0.35 0.34 0.34 0.27 0.32 0.33 0.36 0.36 0.34 0.44 0.42 0.35 0.29 0.25 0.39 0.49 0.44 0.41 0.44 0.42 0.31 0.22 0.24 0.27
0.60 0.62 0.55 0.51 0.59 0.66 0.67 0.67 0.67 0.65 0.59 0.60 0.61 0.56 0.52 0.55 0.60 0.53 0.36 0.20 0.21 0.26 0.30 0.29 0.31 0.25 0.25 0.30 0.32 0.34 0.36 0.35 0.38 0.42 0.31 0.28 0.27 0.41 0.45 0.49 0.47 0.40 0.36 0.48 0.36 0.37 0.32
0.57 0.58 0.60 0.56 0.61 0.66 0.65 0.65 0.64 0.62 0.56 0.54 0.44 0.42 0.42 0.56 0.59 0.46 0.31 0.23 0.28 0.34 0.35 0.32 0.21 0.26 0.21 0.26 0.29 0.32 0.31 0.36 0.34 0.42 0.45 0.36 0.25 0.34 0.38 0.46 0.48 0.44 0.48 0.34 0.36 0.24 0.22
0.59 0.57 0.56 0.59 0.65 0.65 0.64 0.65 0.63 0.62 0.55 0.52 0.40 0.31 0.47 0.59 0.54 0.36 0.23 0.26 0.31 0.38 0.38 0.30 0.26 0.25 0.27 0.27 0.29 0.28 0.28 0.32 0.38 0.38 0.43 0.39 0.32 0.25 0.32 0.30 0.31 0.36 0.34 0.38 0.40 0.35 0.26
0.73 0.62 0.56 0.56 0.63 0.66 0.67 0.65 0.61 0.62 0.56 0.46 0.33 0.21 0.47 0.51 0.28 0.31 0.25 0.30 0.35 0.34 0.39 0.34 0.33 0.29 0.26 0.27 0.25 0.25 0.24 0.28 0.39 0.40 0.31 0.37 0.28 0.17 0.19 0.31 0.36 0.36 0.34 0.36 0.30 0.29 0.33
0.86 0.71 0.61 0.56 0.60 0.65 0.68 0.65 0.61 0.59 0.56 0.41 0.25 0.26 0.42 0.40 0.17 0.21 0.27 0.28 0.32 0.30 0.31 0.30 0.28 0.31 0.31 0.26 0.22 0.25 0.26 0.34 0.38 0.36 0.30 0.33 0.23 0.12 0.11 0.17 0.23 0.21 0.26 0.30 0.36 0.35 0.27
0.92 0.82 0.69 0.62 0.58 0.63 0.67 0.67 0.62 0.58 0.56 0.42 0.27 0.16 0.27 0.30 0.28 0.22 0.20 0.21 0.22 0.32 0.30 0.31 0.28 0.29 0.26 0.23 0.27 0.22 0.22 0.29 0.35 0.35 0.37 0.36 0.24 0.17 0.10 0.12 0.17 0.14 0.17 0.21 0.23 0.19 0.20
0.95 0.88 0.80 0.68 0.62 0.57 0.63 0.66 0.66 0.57 0.56 0.43 0.28 0.20 0.25 0.17 0.19 0.20 0.21 0.21 0.19 0.18 0.27 0.29 0.24 0.24 0.22 0.17 0.18 0.19 0.22 0.23 0.28 0.32 0.32 0.29 0.17 0.19 0.18 0.17 0.18 0.16 0.16 0.16 0.15 0.18 0.14
1.02 0.92 0.85 0.76 0.67 0.60 0.57 0.63 0.67 0.64 0.54 0.37 0.25 0.22 0.26 0.21 0.23 0.20 0.19 0.16 0.17 0.19 0.20 0.20 0.20 0.23 0.24 0.19 0.19 0.15 0.20 0.20 0.20 0.27 0.24 0.27 0.16 0.19 0.13 0.15 0.16 0.13 0.14 0.15 0.15 0.17 0.17
1.15 1.01 0.86 0.84 0.74 0.65 0.58 0.58 0.60 0.63 0.61 0.40 0.37 0.39 0.28 0.21 0.19 0.17 0.16 0.17 0.16 0.20 0.22 0.24 0.22 0.19 0.16 0.18 0.27 0.28 0.29 0.27 0.26 0.23 0.22 0.22 0.19 0.15 0.09 0.14 0.13 0.08 0.09 0.11 0.12 0.16 0.15
1.17 1.18 0.98 0.84 0.82 0.73 0.67 0.60 0.57 0.59 0.62 0.54 0.45 0.36 0.23 0.15 0.18 0.17 0.19 0.21 0.20 0.21 0.18 0.23 0.27 0.22 0.24 0.34 0.32 0.31 0.30 0.28 0.28 0.27 0.30 0.22 0.20 0.18 0.12 0.12 0.06 0.09 0.17 0.17 0.14 0.15 0.18
1.11 1.21 1.17 0.94 0.87 0.81 0.75 0.69 0.63 0.57 0.60 0.58 0.56 0.45 0.30 0.16 0.19 0.19 0.19 0.20 0.23 0.26 0.25 0.24 0.27 0.32 0.37 0.30 0.21 0.17 0.17 0.18 0.21 0.26 0.28 0.31 0.24 0.16 0.12 0.11 0.11 0.11 0.14 0.14 0.13 0.11 0.15
1.00 1.21 1.23 1.15 0.92 0.87 0.82 0.77 0.72 0.66 0.59 0.54 0.57 0.59 0.45 0.29 0.19 0.22 0.20 0.22 0.18 0.19 0.21 0.24 0.34 0.40 0.35 0.25 0.20 0.13 0.10 0.13 0.13 0.17 0.27 0.30 0.30 0.20 0.17 0.12 0.10 0.11 0.18 0.23 0.22 0.11 0.16
1.07 1.11 1.23 1.21 1.14 0.94 0.87 0.83 0.79 0.75 0.69 0.59 0.52 0.64 0.54 0.39 0.37 0.30 0.21 0.20 0.25 0.23 0.20 0.24 0.27 0.29 0.34 0.21 0.16 0.14 0.13 0.19 0.12 0.13 0.15 0.18 0.21 0.17 0.17 0.15 0.15 0.18 0.23 0.27 0.13 0.12 0.18
1.24 1.22 1.20 1.22 1.21 1.13 0.94 0.86 0.82 0.81 0.77 0.66 0.55 0.62 0.54 0.47 0.49 0.49 0.42 0.32 0.29 0.27 0.19 0.27 0.26 0.28 0.25 0.18 0.16 0.15 0.16 0.17 0.16 0.17 0.15 0.14 0.13 0.14 0.17 0.14 0.11 0.21 0.23 0.16 0.18 0.23 0.26
1.27 1.28 1.27 1.22 1.22 1.21 1.10 0.93 0.86 0.83 0.83 0.75 0.56 0.66 0.65 0.50 0.49 0.59 0.55 0.50 0.46 0.43 0.37 0.35 0.28 0.28 0.28 0.21 0.20 0.20 0.17 0.19 0.16 0.11 0.19 0.12 0.15 0.12 0.14 0.12 0.18 0.21 0.21 0.26 0.27 0.26 0.28
Wind_Speed
45 40 39 36 31 21 11 8 7 3 4 6 13 12 16 14 15 25 27 30 32 28 20 20 20 18 17 14 14 13 12 13 12 13 13 14 14 15 15 16 18 19 21 23 24 26 27
46 42 39 38 35 25 16 12 11 9 6 5 12 12 11 11 12 23 26 29 32 29 25 19 18 15 13 12 14 12 11 11 11 12 12 13 14 15 15 17 18 20 22 25 25 26 28
47 43 39 37 38 32 21 16 15 14 13 10 11 11 8 9 9 21 26 29 31 28 24 20 17 12 8 10 13 12 10 10 11 11 12 13 14 15 17 18 20 21 23 24 24 24 27
47 44 40 37 34 33 28 20 18 17 16 17 12 9 7 6 11 20 26 31 33 27 22 18 14 12 10 9 10 9 10 10 10 11 12 13 14 15 17 18 19 19 20 21 21 25 26
47 45 41 38 35 33 29 25 18 14 13 14 12 9 8 9 16 27 27 33 28 24 18 15 12 10 10 9 8 8 8 9 9 10 11 13 13 14 16 17 18 18 20 22 24 23 26
47 46 43 41 37 34 32 26 20 16 14 14 13 14 18 21 29 31 30 30 27 21 17 12 10 8 9 8 6 6 5 6 7 10 11 11 13 14 15 15 18 19 20 21 23 21 23
48 46 43 40 39 38 36 34 30 22 21 20 23 23 25 32 30 29 28 28 23 16 14 11 9 9 9 6 4 3 4 5 7 8 10 12 11 13 15 16 16 17 18 21 23 23 23
47 46 44 42 40 36 36 36 36 34 30 28 24 25 27 27 26 23 22 21 18 19 15 12 12 10 8 4 3 0 2 3 5 6 7 7 7 8 9 11 12 13 16 17 19 16 18
45 45 44 43 41 40 37 35 35 34 32 30 29 27 26 25 24 25 24 22 21 18 16 12 10 9 6 5 4 2 2 3 4 6 6 4 6 6 7 9 11 12 12 13 14 17 19
42 43 43 42 41 39 37 36 34 31 29 27 26 25 22 21 23 23 22 22 18 14 13 8 7 7 6 6 5 4 3 4 5 5 5 4 5 5 6 7 6 9 8 12 15 14 11
39 40 40 41 40 38 37 34 32 29 26 24 24 23 21 20 22 21 19 14 11 10 9 5 6 6 6 5 3 3 4 5 5 4 5 5 5 5 6 6 3 7 10 10 8 8 9
35 36 37 37 37 37 35 33 31 28 25 23 21 20 20 21 21 19 13 9 9 9 6 6 6 7 5 5 5 5 5 6 5 4 3 5 4 5 5 8 6 9 10 8 5 6 5
33 33 33 34 34 34 34 31 29 27 24 22 21 21 19 18 16 11 8 7 8 10 8 7 8 8 7 6 6 5 6 6 5 5 7 5 4 5 5 7 5 5 7 7 6 6 6
31 30 30 30 31 32 33 32 30 27 25 23 21 19 18 16 12 10 10 11 13 10 10 10 10 9 8 7 7 6 6 6 5 6 5 7 6 5 6 6 7 7 8 7 6 8 8
28 28 28 27 27 28 30 30 29 27 25 24 22 20 17 13 11 10 11 13 12 11 13 14 11 9 7 7 5 6 5 6 6 4 7 6 4 5 5 6 7 7 8 8 7 7 8
25 25 25 25 24 25 27 28 27 25 22 21 21 20 19 17 17 17 17 17 16 16 14 12 9 8 6 6 6 7 7 6 6 5 5 5 4 5 7 6 6 6 8 7 8 10 8
23 23 22 22 22 23 24 24 25 24 19 19 19 19 19 19 19 19 18 17 16 14 13 11 9 8 6 7 6 6 6 6 7 7 5 5 5 6 6 5 7 7 8 7 7 7 7
23 20 19 19 19 20 21 22 23 22 19 17 17 17 17 17 17 17 16 15 13 12 11 9 8 6 6 6 5 5 5 4 6 6 5 5 5 6 3 4 5 6 6 7 6 6 6
21 20 17 16 16 16 17 18 20 20 18 14 14 14 14 14 15 14 13 12 11 10 9 8 7 7 6 5 6 5 6 5 5 6 6 7 7 9 10 8 7 5 5 6 5 5 4
20 19 18 15 14 14 14 15 16 17 15 12 11 11 11 13 13 13 12 10 9 8 8 7 6 6 6 6 5 6 6 6 6 5 6 6 5 4 4 4 6 6 6 6 4 4 4
19 17 16 15 13 12 12 13 14 13 13 10 9 8 7 7 8 9 9 8 7 6 6 6 5 6 5 5 6 4 5 5 5 5 6 5 5 4 6 7 5 5 5 3 3 3 3
18 16 15 13 13 12 10 10 11 11 10 8 6 6 5 4 4 5 4 5 5 3 3 3 3 4 3 2 2 4 4 4 3 5 6 6 6 8 8 5 4 6 5 3 3 3 3
18 16 14 13 12 11 10 9 9 9 8 6 5 4 3 3 2 1 1 2 2 2 1 0 1 3 3 4 3 4 5 6 5 6 6 6 7 9 6 7 10 6 4 1 2 2 1
18 16 14 13 12 11 10 10 9 8 7 5 4 3 3 2 2 2 2 3 3 3 3 2 2 3 4 5 7 7 7 8 8 8 6 6 7 6 8 10 7 5 6 5 5 6 6
19 17 16 15 14 13 11 10 10 9 8 7 5 4 4 4 4 6 6 6 6 6 7 7 7 6 6 7 7 7 6 5 4 5 5 5 5 6 6 7 10 5 5 4 3 7 6
21 20 18 17 16 14 14 12 11 10 9 9 8 7 6 6 6 6 6 7 8 8 9 9 8 7 6 6 6 6 6 6 6 6 5 4 6 5 6 7 6 6 6 6 6 8 5
23 22 21 20 18 17 16 15 14 13 12 11 11 10 9 9 9 7 8 8 7 8 9 10 10 9 9 8 8 8 9 7 8 7 6 6 7 7 8 9 11 9 5 5 6 7 8
25 25 23 22 21 20 19 18 17 16 15 14 13 13 12 12 14 13 12 10 10 10 9 10 10 11 10 10 9 10 9 10 10 10 9 8 7 8 7 8 10 5 6 7 10 11 13
26 26 26 25 24 23 22 21 20 19 18 16 15 15 15 15 15 16 16 15 15 14 12 12 12 10 11 10 11 10 12 12 12 13 12 13 12 10 10 11 12 12 14 15 16 16 15
Wind_Direction
16 16 15 16 17 20 42 55 35 50 139 156 186 186 190 203 212 203 202 200 198 196 188 192 192 200 210 215 221 232 240 243 251 252 255 255 259 258 262 265 268 268 270 272 271 273 272
20 21 23 26 27 34 53 57 51 70 98 139 160 169 176 190 204 194 194 187 185 190 187 181 185 198 209 214 224 232 238 246 252 254 259 261 258 261 263 269 270 271 273 274 275 274 274
24 26 29 31 35 41 54 58 66 72 78 114 138 151 162 181 192 184 181 181 179 177 181 184 191 193 195 220 223 230 241 249 255 258 260 264 262 264 267 270 274 275 279 279 274 274 277
27 29 31 34 37 41 50 58 69 82 72 89 105 126 131 158 171 170 169 170 170 173 171 180 195 204 211 212 219 229 243 252 261 265 265 269 269 269 273 273 279 280 280 282 277 281 280
31 32 33 36 39 42 48 55 63 72 77 80 80 97 114 120 140 152 153 160 164 170 175 185 192 194 202 210 218 233 245 252 263 270 276 274 274 275 279 279 282 285 280 281 286 280 282
33 34 36 40 42 44 45 48 53 68 82 79 77 91 110 108 126 131 141 147 150 151 159 164 172 174 190 200 211 224 248 267 275 279 280 286 282 281 283 282 278 280 285 283 279 283 285
34 36 38 40 44 47 49 53 57 71 89 90 84 93 104 114 113 122 140 132 144 140 131 143 154 149 160 170 188 219 267 284 294 295 291 291 290 284 281 282 284 282 281 283 284 285 287
35 37 39 42 44 48 53 57 62 75 87 87 86 93 109 114 116 128 128 134 137 144 124 116 121 124 136 150 150 202 315 331 335 320 311 311 300 293 292 291 289 287 288 290 293 293 288
36 38 41 43 47 52 55 59 65 76 84 84 84 98 104 109 115 112 116 123 126 129 122 113 113 115 115 105 100 68 34 14 354 341 336 325 312 316 309 305 302 295 287 290 288 308 299
36 38 42 45 48 52 56 60 66 74 76 82 83 90 100 112 110 114 116 117 118 124 118 101 106 105 100 98 77 62 32 3 352 341 345 339 359 343 332 319 308 310 300 293 302 310 316
36 38 41 44 48 51 54 59 63 68 74 77 77 86 91 106 118 117 117 110 110 121 108 118 106 109 97 87 78 30 22 21 12 25 24 344 348 341 334 325 321 305 326 314 310 314 322
35 37 40 43 46 49 52 55 59 62 68 73 76 82 93 101 111 112 106 97 105 105 116 116 116 105 90 88 79 62 54 46 38 19 356 331 345 340 342 338 303 320 331 326 321 348 350
33 36 38 42 44 46 49 50 52 55 62 70 76 81 90 103 108 99 84 86 100 104 123 124 119 108 94 89 90 79 52 26 28 16 13 2 22 6 16 7 18 8 360 3 9 2 343
31 34 36 40 43 45 47 47 49 54 60 69 75 79 85 91 90 85 79 85 91 113 118 115 114 101 94 89 79 67 42 38 48 44 37 32 24 50 47 26 25 27 27 29 12 14 0
28 31 34 38 41 43 43 45 48 54 63 67 70 72 75 73 76 80 85 88 109 114 115 117 110 104 89 75 73 52 67 52 53 59 42 34 21 27 33 33 37 32 33 32 26 31 31
23 26 31 36 39 40 41 43 46 52 60 64 67 70 71 69 80 86 90 97 99 107 109 110 109 101 80 67 70 62 52 46 36 46 42 38 10 38 27 43 30 33 25 34 35 30 29
16 20 26 31 35 37 38 40 43 47 56 63 66 75 72 73 83 87 95 100 103 106 107 103 98 88 80 68 74 60 44 29 38 43 57 38 40 5 20 44 37 33 32 26 29 46 33
12 12 17 24 29 33 36 38 39 42 53 62 69 75 72 80 86 87 93 97 98 96 99 99 94 85 76 68 57 46 36 39 50 55 47 36 34 7 7 21 28 29 35 39 43 28 35
4 7 8 13 19 25 30 33 34 38 45 61 71 75 75 80 86 88 91 91 92 93 88 84 78 70 63 56 45 47 38 45 63 55 54 51 40 31 38 44 40 32 29 23 32 34 26
354 359 3 1 4 11 17 23 25 29 38 55 66 70 72 77 90 93 90 89 92 90 91 81 74 71 54 47 48 37 41 51 42 43 33 44 39 47 48 24 27 11 19 32 33 39 23
345 346 352 357 355 356 2 9 16 24 30 44 55 65 76 81 79 94 94 87 87 82 82 69 76 66 55 39 27 39 39 22 33 29 32 30 6 15 339 318 337 329 326 5 37 12 48
331 336 338 344 352 351 352 357 6 14 23 41 51 60 58 78 76 95 90 107 104 85 88 73 66 28 32 22 20 360 16 14 5 11 11 4 354 353 340 356 353 325 306 306 328 353 334
317 323 326 329 334 343 345 346 350 359 8 24 30 38 41 31 67 93 208 162 158 99 25 339 354 353 327 307 315 307 304 309 313 329 336 341 347 350 334 347 329 335 334 337 334 333 27
303 307 313 315 317 323 328 336 336 336 344 344 342 355 2 323 294 269 285 263 247 256 261 285 290 313 323 328 318 314 302 294 291 287 289 320 336 339 328 344 354 330 335 320 298 297 276
292 293 298 303 305 304 308 311 322 321 313 314 306 305 307 301 283 281 263 266 276 275 275 277 276 280 306 323 323 329 329 325 319 307 285 284 328 330 337 334 318 338 342 331 316 315 293
282 284 286 290 294 295 295 296 298 305 307 290 287 285 286 291 284 284 277 265 268 273 285 278 283 280 293 302 309 303 302 308 315 320 335 320 314 319 331 329 316 317 326 326 332 323 318
276 276 280 280 283 286 288 287 287 289 289 293 278 274 277 279 277 270 271 271 271 275 275 282 279 276 279 284 284 283 291 291 295 290 288 297 300 289 296 309 311 300 316 329 334 310 320
274 270 271 276 275 279 280 281 281 281 280 281 282 270 269 270 275 266 267 269 274 273 274 279 284 277 276 274 276 280 280 283 292 286 284 279 285 289 299 296 304 298 318 300 306 312 310
273 271 268 269 270 271 274 275 276 276 275 272 277 273 270 269 270 272 268 262 264 265 269 272 272 274 267 275 276 280 282 285 282 288 286 287 274 287 272 289 295 285 293 297 301 302 302